Location: Fernhill
(41.0167°S, 175.6333°E)
Time: 16:39:51
(UTC+00:00)

Cosmos 1833 Rocket - Pass Details

Date: 19 February 2026
Orbit: 832 x 837 km, 71.0° (Epoch: 8 March)

Event Time Altitude Azimuth Distance (km) Brightness Sun altitude
Exits shadow 12:39:34 30° 164° (SSE) 1,487 4.4 -37.8°
Drops below altitude 10° 12:42:19 10° 159° (SSE) 2,477 5.8 -37.8°
Sets 12:44:47 0° 157° (SSE) 3,419 6.7 -37.7°
